This is the latest recevied weather packets stored in our database for station/object DG8SF-13. If no packets are shown the sender has not sent any weather packets the latest 10 day(s).
| Time | Temp. | Humidity | Pressure | Rain* | Wind** | Luminosity | Snow |
|---|---|---|---|---|---|---|---|
| 1777855985 | 10.56° C | 70% | 1014.6 hPa | 0 mm | - | - | - |
| 1777855681 | 10.56° C | 71% | 1014.6 hPa | 0 mm | - | - | - |
| 1777855363 | 10.56° C | 71% | 1014.6 hPa | 0 mm | - | - | - |
| 1777855051 | 10.56° C | 71% | 1014.6 hPa | 0 mm | - | - | - |
| 1777854738 | 10° C | 71% | 1014.7 hPa | 0 mm | - | - | - |
| 1777854427 | 10.56° C | 69% | 1014.6 hPa | 0 mm | - | - | - |
| 1777854115 | 10.56° C | 68% | 1014.7 hPa | 0 mm | - | - | - |
| 1777853803 | 11.11° C | 67% | 1014.7 hPa | 0 mm | - | - | - |
| 1777853490 | 11.11° C | 66% | 1014.7 hPa | 0 mm | - | - | - |
| 1777853181 | 11.11° C | 67% | 1014.6 hPa | 0 mm | - | - | - |
| 1777852865 | 11.11° C | 69% | 1014.6 hPa | 0 mm | - | - | - |
| 1777852554 | 11.11° C | 66% | 1014.6 hPa | 0 mm | - | - | - |
| 1777852240 | 11.11° C | 65% | 1014.6 hPa | 0 mm | - | - | - |
| 1777851931 | 11.67° C | 64% | 1014.6 hPa | 0 mm | - | - | - |
| 1777851624 | 11.67° C | 64% | 1014.7 hPa | 0 mm | - | - | - |
| 1777851306 | 11.67° C | 62% | 1014.7 hPa | 0 mm | - | - | - |
| 1777850993 | 12.22° C | 61% | 1014.7 hPa | 0 mm | - | - | - |
| 1777850684 | 12.22° C | 61% | 1014.8 hPa | 0 mm | - | - | - |
| 1777850370 | 12.22° C | 61% | 1014.8 hPa | 0 mm | - | - | - |
| 1777850060 | 12.22° C | 62% | 1014.9 hPa | 0 mm | - | - | - |
| 1777849746 | 12.22° C | 61% | 1014.9 hPa | 0 mm | - | - | - |
| 1777849439 | 12.22° C | 62% | 1015 hPa | 0 mm | - | - | - |
| 1777849123 | 12.22° C | 63% | 1015 hPa | 0 mm | - | - | - |
| 1777848810 | 11.67° C | 64% | 1014.9 hPa | 0 mm | - | - | - |
| 1777848499 | 11.67° C | 64% | 1014.8 hPa | 0 mm | - | - | - |
* Rain latest hour (hover to see other rain measurements)
** Current wind speed in m/s (hover to see current wind gust speed)